When you browse on this site, cookies collect data to enhance your experience and personalize the content and advertising you see.
Visit our Privacy Policy to learn more. By continuing to use the site, you agree to this use of cookies and data.
  • en Suisse
  • Liste des pays
  • À 7 jours
  • Température de l'eau
  • Carte satellitaire
  • Carte météo
  • Widgets météo
  • user-avatar
    Se connecter

    Météo par heure à Newcastle

    Ce jour, 25 Mai, Samedi

    Heure Température Précipitation Vent Pression Humidité
    00:00 +13°C° 0 mm 3 m/s 765 mmHg 59%
    01:00 +12°C° 0 mm 3 m/s 765 mmHg 59%
    02:00 +12°C° 0 mm 3 m/s 765 mmHg 60%
    03:00 +12°C° 0 mm 3 m/s 764 mmHg 60%
    04:00 +12°C° 0 mm 4 m/s 764 mmHg 61%
    05:00 +12°C° 0 mm 4 m/s 764 mmHg 61%
    06:00 +12°C° 0 mm 4 m/s 764 mmHg 60%
    07:00 +12°C° 0 mm 4 m/s 764 mmHg 59%
    08:00 +14°C° 0 mm 4 m/s 764 mmHg 54%
    09:00 +17°C° 0 mm 4 m/s 764 mmHg 50%
    10:00 +20°C° 0 mm 4 m/s 764 mmHg 45%
    11:00 +21°C° 0 mm 3 m/s 763 mmHg 41%
    12:00 +24°C° 0 mm 3 m/s 763 mmHg 37%
    13:00 +25°C° 0 mm 3 m/s 762 mmHg 33%
    14:00 +25°C° 0 mm 2 m/s 762 mmHg 37%
    15:00 +24°C° 0 mm 2 m/s 762 mmHg 41%
    16:00 +23°C° 0 mm 2 m/s 761 mmHg 45%
    17:00 +20°C° 0 mm 3 m/s 762 mmHg 48%
    18:00 +18°C° 0 mm 3 m/s 762 mmHg 51%
    19:00 +16°C° 0 mm 3 m/s 762 mmHg 54%
    20:00 +14°C° 0 mm 3 m/s 762 mmHg 56%
    21:00 +14°C° 0 mm 3 m/s 762 mmHg 58%
    22:00 +13°C° 0 mm 3 m/s 762 mmHg 60%
    23:00 +13°C° 0 mm 3 m/s 762 mmHg 59%

    Demain, 26 Mai, Dimanche

    Heure Température Précipitation Vent Pression Humidité
    00:00 +13°C° 0 mm 4 m/s 761 mmHg 59%
    01:00 +13°C° 0 mm 4 m/s 761 mmHg 58%
    02:00 +13°C° 0 mm 4 m/s 761 mmHg 57%
    03:00 +14°C° 0 mm 4 m/s 761 mmHg 56%
    04:00 +14°C° 0 mm 5 m/s 760 mmHg 56%
    05:00 +14°C° 0 mm 5 m/s 760 mmHg 56%
    06:00 +14°C° 0 mm 5 m/s 761 mmHg 56%
    07:00 +14°C° 0 mm 5 m/s 761 mmHg 56%
    08:00 +16°C° 0 mm 5 m/s 761 mmHg 54%
    09:00 +17°C° 0 mm 5 m/s 761 mmHg 53%
    10:00 +20°C° 0 mm 5 m/s 761 mmHg 51%
    11:00 +21°C° 0.1 mm 5 m/s 760 mmHg 47%
    12:00 +23°C° 0.1 mm 4 m/s 760 mmHg 43%
    13:00 +25°C° 0.1 mm 4 m/s 759 mmHg 39%
    14:00 +25°C° 0 mm 3 m/s 759 mmHg 42%
    15:00 +24°C° 0 mm 2 m/s 759 mmHg 45%
    16:00 +23°C° 0 mm 2 m/s 759 mmHg 48%
    17:00 +21°C° 0 mm 1 m/s 759 mmHg 53%
    18:00 +19°C° 0 mm 1 m/s 759 mmHg 58%
    19:00 +16°C° 0 mm 1 m/s 760 mmHg 63%
    20:00 +15°C° 0 mm 2 m/s 760 mmHg 64%
    21:00 +14°C° 0 mm 2 m/s 760 mmHg 66%
    22:00 +13°C° 0 mm 3 m/s 760 mmHg 67%
    23:00 +12°C° 0 mm 3 m/s 760 mmHg 69%

    Après-demain, 27 Mai, Lundi

    Heure Température Précipitation Vent Pression Humidité
    00:00 +12°C° 0 mm 3 m/s 759 mmHg 71%
    01:00 +11°C° 0 mm 4 m/s 759 mmHg 73%
    02:00 +11°C° 0 mm 4 m/s 759 mmHg 70%
    03:00 +10°C° 0 mm 5 m/s 759 mmHg 68%
    04:00 +10°C° 0 mm 5 m/s 759 mmHg 65%
    05:00 +10°C° 0 mm 6 m/s 758 mmHg 63%
    06:00 +10°C° 0 mm 6 m/s 758 mmHg 62%
    07:00 +10°C° 0 mm 6 m/s 758 mmHg 60%
    08:00 +11°C° 0 mm 6 m/s 758 mmHg 55%
    09:00 +14°C° 0 mm 7 m/s 758 mmHg 50%
    10:00 +16°C° 0 mm 7 m/s 758 mmHg 46%
    11:00 +17°C° 0 mm 8 m/s 757 mmHg 44%
    12:00 +18°C° 0 mm 8 m/s 756 mmHg 42%
    13:00 +19°C° 0 mm 9 m/s 756 mmHg 40%
    14:00 +17°C° 0 mm 9 m/s 756 mmHg 41%
    15:00 +16°C° 0 mm 8 m/s 757 mmHg 42%
    16:00 +15°C° 0 mm 8 m/s 757 mmHg 43%
    17:00 +13°C° 0 mm 8 m/s 758 mmHg 43%
    18:00 +11°C° 0 mm 8 m/s 759 mmHg 42%
    19:00 +10°C° 0 mm 8 m/s 760 mmHg 42%
    20:00 +10°C° 0 mm 7 m/s 760 mmHg 44%
    21:00 +9°C° 0 mm 7 m/s 761 mmHg 45%
    22:00 +9°C° 0 mm 7 m/s 761 mmHg 47%
    23:00 +8°C° 0 mm 6 m/s 761 mmHg 49%

    28 Mai, Mardi

    Heure Température Précipitation Vent Pression Humidité
    00:00 +8°C° 0 mm 6 m/s 761 mmHg 51%
    01:00 +7°C° 0 mm 6 m/s 761 mmHg 54%
    02:00 +7°C° 0 mm 6 m/s 761 mmHg 55%
    03:00 +7°C° 0 mm 6 m/s 761 mmHg 57%
    04:00 +6°C° 0 mm 5 m/s 761 mmHg 59%
    05:00 +6°C° 0 mm 5 m/s 761 mmHg 61%
    06:00 +6°C° 0 mm 5 m/s 761 mmHg 63%
    07:00 +6°C° 0 mm 5 m/s 762 mmHg 64%
    08:00 +8°C° 0 mm 5 m/s 762 mmHg 60%
    09:00 +9°C° 0 mm 5 m/s 762 mmHg 55%
    10:00 +12°C° 0 mm 5 m/s 762 mmHg 51%
    11:00 +14°C° 0 mm 5 m/s 761 mmHg 47%
    12:00 +15°C° 0 mm 6 m/s 760 mmHg 44%
    13:00 +16°C° 0 mm 6 m/s 759 mmHg 40%
    14:00 +16°C° 0 mm 6 m/s 759 mmHg 41%
    15:00 +16°C° 0 mm 6 m/s 759 mmHg 42%
    16:00 +16°C° 0 mm 6 m/s 759 mmHg 43%
    17:00 +15°C° 0 mm 6 m/s 759 mmHg 45%
    18:00 +14°C° 0 mm 6 m/s 759 mmHg 47%
    19:00 +13°C° 0 mm 6 m/s 759 mmHg 48%
    20:00 +11°C° 0 mm 7 m/s 759 mmHg 50%
    21:00 +11°C° 0 mm 7 m/s 760 mmHg 52%
    22:00 +10°C° 0 mm 7 m/s 760 mmHg 54%
    23:00 +10°C° 0 mm 7 m/s 759 mmHg 56%

    29 Mai, Mercredi

    Heure Température Précipitation Vent Pression Humidité
    00:00 +10°C° 0 mm 7 m/s 759 mmHg 58%
    01:00 +10°C° 0 mm 7 m/s 758 mmHg 60%
    02:00 +10°C° 0 mm 7 m/s 758 mmHg 60%
    03:00 +10°C° 0 mm 7 m/s 758 mmHg 60%
    04:00 +9°C° 0 mm 7 m/s 757 mmHg 61%
    05:00 +10°C° 0 mm 7 m/s 757 mmHg 61%
    06:00 +10°C° 0 mm 7 m/s 757 mmHg 61%
    07:00 +10°C° 0 mm 7 m/s 757 mmHg 62%
    08:00 +11°C° 0 mm 7 m/s 757 mmHg 57%
    09:00 +13°C° 0 mm 8 m/s 757 mmHg 52%
    10:00 +16°C° 0 mm 8 m/s 757 mmHg 48%
    11:00 +16°C° 0 mm 8 m/s 756 mmHg 47%
    12:00 +17°C° 0 mm 8 m/s 756 mmHg 47%
    13:00 +17°C° 0 mm 8 m/s 755 mmHg 47%
    14:00 +16°C° 0 mm 7 m/s 755 mmHg 49%
    15:00 +16°C° 0 mm 7 m/s 755 mmHg 51%
    16:00 +15°C° 0 mm 6 m/s 755 mmHg 52%
    17:00 +15°C° 0 mm 6 m/s 756 mmHg 53%
    18:00 +14°C° 0 mm 6 m/s 757 mmHg 53%
    19:00 +14°C° 0 mm 6 m/s 757 mmHg 53%
    20:00 +13°C° 0 mm 6 m/s 758 mmHg 55%
    21:00 +11°C° 0 mm 6 m/s 758 mmHg 58%
    22:00 +11°C° 0 mm 7 m/s 758 mmHg 61%
    23:00 +10°C° 0 mm 6 m/s 758 mmHg 62%

    30 Mai, Jeudi

    Heure Température Précipitation Vent Pression Humidité
    00:00 +9°C° 0 mm 6 m/s 758 mmHg 63%
    01:00 +8°C° 0 mm 6 m/s 759 mmHg 65%
    02:00 +8°C° 0 mm 6 m/s 759 mmHg 66%
    03:00 +7°C° 0 mm 6 m/s 759 mmHg 67%
    04:00 +7°C° 0 mm 6 m/s 759 mmHg 68%
    05:00 +5°C° 0 mm 6 m/s 760 mmHg 69%
    06:00 +6°C° 0 mm 5 m/s 761 mmHg 70%
    07:00 +5°C° 0 mm 5 m/s 761 mmHg 72%
    08:00 +7°C° 0 mm 5 m/s 762 mmHg 63%
    09:00 +9°C° 0 mm 5 m/s 762 mmHg 54%
    10:00 +10°C° 0 mm 6 m/s 762 mmHg 45%
    11:00 +12°C° 0 mm 5 m/s 762 mmHg 43%
    12:00 +13°C° 0 mm 5 m/s 762 mmHg 40%
    13:00 +14°C° 0 mm 5 m/s 762 mmHg 37%
    14:00 +14°C° 0 mm 4 m/s 762 mmHg 39%
    15:00 +13°C° 0 mm 4 m/s 763 mmHg 42%
    16:00 +13°C° 0 mm 4 m/s 763 mmHg 44%
    17:00 +12°C° 0 mm 4 m/s 764 mmHg 47%
    18:00 +11°C° 0 mm 4 m/s 765 mmHg 49%
    19:00 +10°C° 0 mm 4 m/s 765 mmHg 52%
    20:00 +8°C° 0.1 mm 5 m/s 766 mmHg 52%
    21:00 +8°C° 0.1 mm 6 m/s 766 mmHg 53%
    22:00 +7°C° 0.1 mm 6 m/s 767 mmHg 53%
    23:00 +8°C° 0.2 mm 7 m/s 766 mmHg 54%
    Voir plus